Show Low, AZ

10:00 AM MST on March 28, 2017 (GMT -0700)
Show Low Municipal

Weather History for KSOW - February, 2013

Change the Weather History Date:

Saturday, February 9, 2013

  Actual Average Record
Temperature  
Mean Temperature 28 °F -  
Max Temperature 33 °F 46 °F 66 °F (2017)
Min Temperature 23 °F 27 °F 6 °F (1974)
Degree Days  
Heating Degree Days 37    
Moisture  
Dew Point 20 °F    
Average Humidity 77    
Maximum Humidity 93    
Minimum Humidity 59    
Precipitation  
Precipitation 0.02 in - - ()
Sea Level Pressure  
Sea Level Pressure 29.79 in    
Wind  
Wind Speed 18 mph (SW)    
Max Wind Speed 29 mph    
Max Gust Speed 38 mph    
Visibility 6 miles    
Events Rain , Snow    
Averages and records for this station are not official NWS values.
T = Trace of Precipitation, MM = Missing Value Source: NWS Daily Summary

Daily Weather History Graph

Daily Weather History Graph

Search for Another Location

Airport or City:

Trip Planner

Search our weather history database for the weather conditions in past years. The results will help you decide how hot, cold, wet, or windy it might be!

Date:

Astronomy

Feb. 09, 2013 Rise Set
Actual Time 7:10 AM MST 5:58 PM MST
Civil Twilight 6:44 AM MST 6:24 PM MST
Nautical Twilight 6:15 AM MST 6:53 PM MST
Astronomical Twilight 5:45 AM MST 7:23 PM MST
Moon 6:25 AM MST (2/9) 5:43 PM MST (2/9)
Length of Visible Light 11h 39m
Length of Day
10h 47m
Waning Crescent, 0% of the Moon is Illuminated
Feb 9
Waning Crescent
Feb 10
New
Feb 17
First Quarter
Feb 25
Full
Mar 4
Last Quarter

Hourly Weather History & Observations

Time (MST) Temp. Windchill Dew Point Humidity Pressure Visibility Wind Dir Wind Speed Gust Speed Precip Events Conditions
12:15 AM 32.0 °F 20.5 °F 24.8 °F 75% 29.74 in 10.0 mi SSW 18.4 mph 25.3 mph N/A   Partly Cloudy
12:35 AM 33.8 °F 23.2 °F 24.8 °F 70% 29.73 in 10.0 mi SSW 17.3 mph 34.5 mph N/A   Mostly Cloudy
12:55 AM 32.0 °F 19.2 °F 23.0 °F 69% 29.73 in 10.0 mi SSW 23.0 mph 33.4 mph N/A   Mostly Cloudy
1:15 AM 32.0 °F 19.8 °F 21.2 °F 64% 29.73 in 10.0 mi SSW 20.7 mph 27.6 mph N/A   Overcast
1:35 AM 32.0 °F 24.2 °F 23.0 °F 69% 29.72 in 10.0 mi SSW 9.2 mph 25.3 mph N/A   Mostly Cloudy
1:55 AM 32.0 °F 20.8 °F 21.2 °F 64% 29.72 in 10.0 mi SSW 17.3 mph 20.7 mph N/A   Overcast
2:15 AM 32.0 °F 22.1 °F 19.4 °F 60% 29.71 in 10.0 mi SSW 13.8 mph 24.2 mph N/A   Overcast
2:35 AM 32.0 °F 19.8 °F 19.4 °F 60% 29.71 in 10.0 mi SSW 20.7 mph 27.6 mph N/A   Overcast
2:55 AM 32.0 °F 19.8 °F 19.4 °F 60% 29.70 in 10.0 mi SSW 20.7 mph 31.1 mph N/A   Mostly Cloudy
3:15 AM 32.0 °F 20.8 °F 23.0 °F 69% 29.70 in 5.0 mi SSW 17.3 mph 31.1 mph N/A Snow Light Snow
3:35 AM 28.4 °F 16.2 °F 23.0 °F 80% 29.69 in 9.0 mi SSW 17.3 mph 23.0 mph N/A Rain Light Freezing Rain
3:55 AM 28.4 °F 15.4 °F 23.0 °F 80% 29.68 in 10.0 mi SSW 19.6 mph 28.8 mph N/A   Mostly Cloudy
4:15 AM 28.4 °F 16.2 °F 24.8 °F 86% 29.69 in 0.5 mi SW 17.3 mph 24.2 mph 0.01 in Snow Snow
4:35 AM 26.6 °F 13.8 °F 24.8 °F 93% 29.68 in 0.5 mi SW 17.3 mph 31.1 mph 0.01 in Snow Snow
4:55 AM 26.6 °F 12.4 °F 23.0 °F 86% 29.68 in 8.0 mi SW 21.9 mph 26.5 mph 0.01 in Rain Light Freezing Rain
5:15 AM 26.6 °F 14.3 °F 23.0 °F 86% 29.66 in 9.0 mi SSW 16.1 mph 23.0 mph N/A   Mostly Cloudy
5:35 AM 26.6 °F 14.3 °F 23.0 °F 86% 29.67 in 10.0 mi SW 16.1 mph 20.7 mph N/A   Mostly Cloudy
5:55 AM 26.6 °F 13.8 °F 23.0 °F 86% 29.67 in 10.0 mi SW 17.3 mph 23.0 mph N/A   Overcast
6:15 AM 24.8 °F 11.1 °F 23.0 °F 93% 29.67 in 2.5 mi SW 18.4 mph - N/A Snow Light Snow
6:35 AM 24.8 °F 12.4 °F 23.0 °F 93% 29.69 in 1.0 mi WSW 15.0 mph 19.6 mph N/A Snow Light Snow
6:55 AM 24.8 °F 12.4 °F 21.2 °F 86% 29.69 in 2.0 mi SW 15.0 mph 23.0 mph 0.01 in Snow Light Snow
7:15 AM 23.0 °F 9.6 °F 19.4 °F 86% 29.71 in 1.5 mi SW 16.1 mph 24.2 mph N/A Snow Light Snow
7:35 AM 23.0 °F 10.1 °F 17.6 °F 80% 29.71 in 1.2 mi SW 15.0 mph 27.6 mph N/A Snow Light Snow
7:55 AM 23.0 °F 11.1 °F 19.4 °F 86% 29.72 in 6.0 mi SW 12.7 mph - N/A Rain Light Freezing Rain
8:15 AM 23.0 °F 10.6 °F 19.4 °F 86% 29.72 in 0.5 mi SW 13.8 mph - N/A Snow Snow
8:35 AM 23.0 °F 11.7 °F 19.4 °F 86% 29.74 in 0.5 mi SSW 11.5 mph - N/A Snow Snow
8:55 AM 23.0 °F 11.7 °F 19.4 °F 86% 29.74 in 8.0 mi SW 11.5 mph - N/A Rain Light Freezing Rain
9:15 AM 23.0 °F 8.3 °F 17.6 °F 80% 29.75 in 8.0 mi SSW 19.6 mph 24.2 mph N/A Rain Light Freezing Rain
9:35 AM 23.0 °F 9.6 °F 17.6 °F 80% 29.76 in 1.8 mi SSW 16.1 mph 24.2 mph N/A Snow Light Snow
9:55 AM 24.8 °F 11.1 °F 17.6 °F 74% 29.77 in 6.0 mi SSW 18.4 mph 24.2 mph N/A Rain Light Freezing Rain
10:15 AM 24.8 °F 11.1 °F 17.6 °F 74% 29.77 in 1.8 mi SW 18.4 mph 27.6 mph N/A Snow Light Snow
10:35 AM 23.0 °F 8.3 °F 19.4 °F 86% 29.77 in 0.5 mi SSW 19.6 mph 27.6 mph N/A Snow Snow
10:55 AM 24.8 °F 9.6 °F 17.6 °F 74% 29.77 in 4.0 mi SSW 23.0 mph 31.1 mph N/A Rain Light Freezing Rain
11:15 AM 24.8 °F 9.0 °F 17.6 °F 74% 29.78 in 0.8 mi SW 25.3 mph 33.4 mph N/A Snow Light Snow
11:35 AM 24.8 °F 10.7 °F 19.4 °F 80% 29.78 in 2.5 mi SSW 19.6 mph 31.1 mph N/A   Overcast
11:55 AM 24.8 °F 9.6 °F 19.4 °F 80% 29.77 in 0.8 mi SSW 23.0 mph 31.1 mph N/A Snow Light Snow
12:15 PM 24.8 °F 9.0 °F 17.6 °F 74% 29.77 in 3.0 mi SSW 25.3 mph 33.4 mph N/A Snow Light Snow
12:35 PM 26.6 °F 11.4 °F 19.4 °F 74% 29.77 in 2.5 mi SSW 25.3 mph 36.8 mph N/A Rain Light Freezing Rain
12:55 PM 26.6 °F 10.8 °F 21.2 °F 80% 29.77 in 0.8 mi SSW 27.6 mph 31.1 mph N/A Snow Light Snow
1:15 PM 24.8 °F 9.3 °F 21.2 °F 86% 29.77 in 0.5 mi SSW 24.2 mph 35.7 mph N/A Snow Snow
1:35 PM 26.6 °F 10.8 °F 19.4 °F 74% 29.77 in 3.0 mi SSW 27.6 mph 33.4 mph N/A Rain Light Freezing Rain
1:55 PM 26.6 °F 11.7 °F 21.2 °F 80% 29.77 in 1.0 mi SW 24.2 mph 31.1 mph N/A Snow Light Snow
2:15 PM 26.6 °F 11.4 °F 17.6 °F 69% 29.78 in 10.0 mi SW 25.3 mph 33.4 mph N/A Rain Light Freezing Rain
2:35 PM 28.4 °F 13.8 °F 15.8 °F 59% 29.78 in 6.0 mi SW 25.3 mph 38.0 mph N/A Rain Light Freezing Rain
2:55 PM 28.4 °F 13.0 °F 17.6 °F 64% 29.79 in 10.0 mi SW 28.8 mph 34.5 mph N/A   Mostly Cloudy
3:15 PM 26.6 °F 11.7 °F 19.4 °F 74% 29.80 in 5.0 mi SW 24.2 mph 35.7 mph N/A Snow Light Snow
3:35 PM 26.6 °F 13.4 °F 19.4 °F 74% 29.81 in 4.0 mi SSW 18.4 mph 27.6 mph N/A Snow Light Snow
3:55 PM 26.6 °F 12.0 °F 19.4 °F 74% 29.81 in 6.0 mi SSW 23.0 mph 29.9 mph N/A Rain Light Freezing Rain
4:15 PM 26.6 °F 13.1 °F 17.6 °F 69% 29.82 in 7.0 mi SW 19.6 mph 28.8 mph N/A Rain Light Freezing Rain
4:35 PM 26.6 °F 14.3 °F 17.6 °F 69% 29.83 in 10.0 mi SW 16.1 mph 27.6 mph N/A   Overcast
4:55 PM 26.6 °F 14.7 °F 17.6 °F 69% 29.84 in 10.0 mi SW 15.0 mph 23.0 mph N/A Rain Light Freezing Rain
5:15 PM 24.8 °F 11.5 °F 17.6 °F 74% 29.85 in 7.0 mi SW 17.3 mph 25.3 mph N/A Rain Light Freezing Rain
5:35 PM 24.8 °F 11.1 °F 17.6 °F 74% 29.85 in 7.0 mi SW 18.4 mph 24.2 mph N/A Rain Light Freezing Rain
5:55 PM 24.8 °F 14.0 °F 17.6 °F 74% 29.86 in 9.0 mi SW 11.5 mph 23.0 mph N/A Rain Light Freezing Rain
6:15 PM 24.8 °F 12.9 °F 17.6 °F 74% 29.87 in 8.0 mi SW 13.8 mph - N/A Rain Light Freezing Rain
6:35 PM 24.8 °F 14.6 °F 17.6 °F 74% 29.88 in 6.0 mi SW 10.4 mph 19.6 mph N/A Snow Light Snow
6:55 PM 24.8 °F 12.9 °F 19.4 °F 80% 29.88 in 4.0 mi SSW 13.8 mph - N/A Snow Light Snow
7:15 PM 24.8 °F 12.4 °F 17.6 °F 74% 29.89 in 9.0 mi SW 15.0 mph 20.7 mph N/A Rain Light Freezing Rain
7:35 PM 24.8 °F 14.0 °F 17.6 °F 74% 29.89 in 10.0 mi SW 11.5 mph - N/A   Overcast
7:55 PM 24.8 °F 13.4 °F 17.6 °F 74% 29.89 in 10.0 mi SSW 12.7 mph - N/A Rain Light Freezing Rain
8:15 PM 24.8 °F 14.0 °F 19.4 °F 80% 29.90 in 10.0 mi SSW 11.5 mph - N/A Rain Light Freezing Rain
8:35 PM 24.8 °F 13.4 °F 19.4 °F 80% 29.90 in 8.0 mi SW 12.7 mph - N/A Rain Light Freezing Rain
8:55 PM 24.8 °F 13.4 °F 19.4 °F 80% 29.91 in 10.0 mi SW 12.7 mph - N/A Rain Light Freezing Rain
9:15 PM 24.8 °F 14.0 °F 19.4 °F 80% 29.92 in 10.0 mi SSW 11.5 mph 17.3 mph N/A   Overcast
9:35 PM 24.8 °F 15.3 °F 19.4 °F 80% 29.92 in 9.0 mi SSW 9.2 mph - N/A Rain Light Freezing Rain
9:55 PM 24.8 °F 14.0 °F 19.4 °F 80% 29.92 in 10.0 mi SW 11.5 mph - N/A Rain Light Freezing Rain
10:15 PM 24.8 °F 16.1 °F 19.4 °F 80% 29.93 in 9.0 mi SW 8.1 mph - N/A Rain Light Freezing Rain
10:35 PM 24.8 °F 15.3 °F 19.4 °F 80% 29.93 in 5.0 mi SW 9.2 mph - N/A Snow Light Snow
10:55 PM 23.0 °F 12.4 °F 17.6 °F 80% 29.93 in 10.0 mi SW 10.4 mph - N/A   Mostly Cloudy
11:15 PM 23.0 °F 14.7 °F 17.6 °F 80% 29.94 in 9.0 mi SW 6.9 mph - N/A   Mostly Cloudy
11:35 PM 23.0 °F 13.1 °F 19.4 °F 86% 29.94 in 10.0 mi SW 9.2 mph - N/A   Overcast
11:55 PM 24.8 °F 16.9 °F 19.4 °F 80% 29.94 in 3.0 mi SSW 6.9 mph - N/A Snow Light Snow